Regional Weather Roundup
Issued by NWS

Home | Current Version | Previous Version | Graphics & Text | Print | Product List | Glossary On
Versions: 1 2 3 4 5 6 7 8 9 10 11 12 13 14 15 16 17 18 19 20 21 22 23 24 25 26 27 28 29 30 31 32 33 34 35 36 37 38 39 40 41 42 43 44 45 46 47 48 49 50
099
ASUS43 KDMX 181201
RWRIA

WEATHER ROUNDUP FOR IOWA
NATIONAL WEATHER SERVICE DES MOINES IA
600 AM CST MON DEC 18 2017

NOTE: "FAIR" INDICATES FEW OR NO CLOUDS BELOW 12,000 FEET WITH NO
SIGNIFICANT WEATHER AND/OR OBSTRUCTIONS TO VISIBILITY.

* - THESE STATIONS ARE NOT NWS STATIONS...THUS NOT UNDER NWS
QUALITY CONTROL.  THEY ALSO DO NOT REPORT WEATHER SUCH
AS PRECIPITATION OR FOG.

IAZ001>003-012>014-020>022-031>034-043>046-181300-
   NORTHWEST IOWA

CITY           SKY/WX    TMP DP  RH WIND       PRES   REMARKS
CARROLL *      CLOUDY    23  21  93 S5        29.91F FOG     WCI  17
DENISON *      CLOUDY    25  25 100 VRB7      29.91F FOG     WCI  17
LE MARS *      PTCLDY    23  21  93 S7        29.84F WCI  15
ORANGE CITY *  CLOUDY    25  25 100 S6        29.83F WCI  18
SHELDON *      CLEAR     23  21  93 S6        29.82S WCI  16
SIOUX CITY     CLOUDY    19  18  95 SE8       29.87F WCI   9
6HR MIN TEMP:  17; 6HR MAX TEMP:  22;

SPENCER        CLOUDY    23  20  88 S8        29.83F WCI  14
6HR MIN TEMP:  20; 6HR MAX TEMP:  27;

STORM LAKE *   CLOUDY    23  23 100 SW12      29.86S FOG     WCI  12
$$

IAZ055>058-069>071-079>083-090>094-181300-
   SOUTHWEST IOWA

CITY           SKY/WX    TMP DP  RH WIND       PRES   REMARKS
ATLANTIC *     FOG       27  27 100 S6        29.95F VSB<1/4 WCI  20
AUDUBON *      CLOUDY    21  18  86 CALM      29.93F FOG
CLARINDA *     FOG       28  28 100 SW5       30.01S VSB 1/4 WCI  23
COUNCIL BLFS * CLOUDY    27  27 100 S7        29.93F FOG     WCI  19
CRESTON *      FOG       30  30 100 SW8       29.97F VSB<1/4 WCI  23
HARLAN  *      FOG       23  23 100 S10       29.97S VSB 1/4 WCI  12
LAMONI         CLOUDY    31  30  96 W7        29.98S FOG     WCI  24
6HR MIN TEMP:  31; 6HR MAX TEMP:  36;

RED OAK *      FOG       27  27 100 S6        29.97F VSB<1/4 WCI  20
SHENANDOAH *   MOCLDY    30  30 100 CALM      29.99S FOG
$$

IAZ047>049-059>061-072>074-084-181300-
   CENTRAL IOWA

CITY           SKY/WX    TMP DP  RH WIND       PRES   REMARKS
AMES           CLOUDY    21  20  96 SW8       29.95S FOG     WCI  11
6HR MIN TEMP:  20; 6HR MAX TEMP:  27;

ANKENY *       CLOUDY    25  23  93 SW8       29.97F FOG     WCI  16
BOONE *        CLOUDY    23  23 100 SW7       29.92F FOG     WCI  15
CHARITON *     CLOUDY    30  30 100 SW5       29.97S FOG     WCI  25
DES MOINES     FOG       29  28  96 SW6       29.97S VSB 1/4 WCI  23
6HR MIN TEMP:  25; 6HR MAX TEMP:  29;

GRINNELL*      PTCLDY    26  25  96 SW8       29.96S FOG     WCI  18
KNOXVILLE *    CLOUDY    30  30 100 W9        29.96R FOG     WCI  22
MARSHALLTOWN   MOCLDY    24  24 100 SW8       29.94R FOG     WCI  15
6HR MIN TEMP:  20; 6HR MAX TEMP:  29;

NEWTON *       CLEAR     25  25 100 W8        29.97R FOG     WCI  16
PELLA *        PTCLDY    30  28  94 W7        29.98R FOG     WCI  23
$$

IAZ004>006-015-016-023>025-035-036-181300-
   NORTH CENTRAL IOWA

CITY           SKY/WX    TMP DP  RH WIND       PRES   REMARKS
ALGONA *       CLOUDY    19  19 100 S8        29.86F FOG     WCI   9
CLARION *      CLOUDY    19  19 100 S6        29.90F FOG     WCI  11
ESTHERVILLE    CLOUDY    20  19  96 S8        29.83F WCI  10
6HR MIN TEMP:  20; 6HR MAX TEMP:  28;

FORT DODGE *   CLOUDY    21  19  92 SW7       29.91F FOG     WCI  12
MASON CITY     FOG       24  23  96 SW9       29.90F VSB 1/2 WCI  14
6HR MIN TEMP:  24; 6HR MAX TEMP:  28;

FOREST CITY *  FOG       23  23 100 S6        29.88F VSB 3/4 WCI  16
IOWA FALLS *     N/A     24  22  95 SW7       29.93S FOG     WCI  16
$$

IAZ007>011-017>019-026>030-037>042-050>054-066-181300-
   NORTHEAST IOWA

CITY           SKY/WX    TMP DP  RH WIND       PRES   REMARKS
CEDAR RAPIDS   CLEAR     24  23  96 W7        29.94R FOG     WCI  16
6HR MIN TEMP:  24; 6HR MAX TEMP:  36;

CLINTON *      CLOUDY    36  34  92 W13       29.94F WCI  27
DECORAH *      CLOUDY    28  28 100 W5        29.88S FOG     WCI  23
DUBUQUE        CLOUDY    32  30  92 W10       29.91S FOG     WCI  24
6HR MIN TEMP:  31; 6HR MAX TEMP:  34;

MONTICELLO *   CLOUDY    30  30 100 W5        29.93R FOG     WCI  25
OELWEIN *      CLOUDY    30  30 100 SW10      29.92R FOG     WCI  21
WATERLOO       CLOUDY    28  26  92 SW7       29.94R FOG     WCI  21
6HR MIN TEMP:  24; 6HR MAX TEMP:  31;

$$

IAZ064-065-067-068-078-181300-
   EAST CENTRAL IOWA

CITY           SKY/WX    TMP DP  RH WIND       PRES   REMARKS
DAVENPORT      CLOUDY    36  34  92 W13       29.97S FOG     WCI  27
6HR MIN TEMP:  36; 6HR MAX TEMP:  40; 6HR PCP: TRACE;

IOWA CITY      CLEAR     33  30  88 W7        29.98R WCI  27
6HR MIN TEMP:  33; 6HR MAX TEMP:  38;

MT. PLEASANT * CLOUDY    39  39 100 W6        29.97R FOG
MUSCATINE *    CLOUDY    37  36  93 W7        29.97S FOG     WCI  32
QUAD CITIES    CLOUDY    40  39  97 W8        29.95R FOG     WCI  34
6HR MIN TEMP:  40; 6HR MAX TEMP:  43;

$$

IAZ062-063-075>077-085>089-095>099-181300-
   SOUTHEAST IOWA

CITY           SKY/WX    TMP DP  RH WIND       PRES   REMARKS
BURLINGTON     CLOUDY    45  43  93 SW10      29.96R
6HR MIN TEMP:  43; 6HR MAX TEMP:  45;

FAIRFIELD *    FOG       37  37 100 W7        29.96S VSB 3/4 WCI  32
FORT MADISON * CLOUDY    45  43  93 SW9       29.97S
KEOKUK *       CLOUDY    45  43  93 SW14      29.97S
OTTUMWA        CLEAR     33  31  92 W5        29.97R WCI  29
6HR MIN TEMP:  33; 6HR MAX TEMP:  38;

WASHINGTON *   CLOUDY    36  36 100 W7        29.97S FOG     WCI  30
$$

ABBREVIATIONS USED IN REMARKS
   TC - TEMPERATURES IN CELSIUS
  WCI - WIND CHILL INDEX
   HX - HEAT INDEX
  VSB - VISIBILITY
$$





USA.gov is the U.S. government's official web portal to all federal, state and local government web resources and services.